                                                       50 97 BE BC BD BD BA 
 HI HI AE 07 88 51 07 54 1E 0D 00 16 5F 3D 81 4A 96 92 B0 8E BD BC BD BD BA 
 HI HI AE C7 88 55 0C 54 FF 0D 00 16 56 38 7D 60 93 91 9F 88 BD BC BD BD BA 
 HI HI AE C7 88 55 11 55 FF 0D 00 16 62 34 7D 60 94 91 B0 8D BD BB BD BD BA 
 HI HI AE 07 88 51 16 56 FF 0D 00 16 76 31 7E 60 94 91 A0 8E BD BB BD BD BA 
 HI HI AE C7 78 51 1B 56 0A 9D 00 16 75 33 7E 60 94 91 B0 7B BD BB BD BD BA 
 HI HI AE 07 88 51 00 57 FF 0D 00 16 55 37 82 60 93 90 B0 9B BD BB BD BD BA 
 HI HI AE C7 88 51 05 58 FF 1E 00 16 44 3A 87 46 96 94 B0 79 BD BB BD BD BA 
 HI HI AE C7 88 51 0A 58 FF 0D 00 16 75 3A 8C 69 94 91 B0 86 BD BB BD BC BA 
 HI HI AE C7 88 51 0F 59 FF 0D 00 16 93 37 92 60 94 91 B0 81 BD BB BC BE BA 
 HI HI AE C7 88 51 19 5B FF 0D 00 16 2F 45 8D 60 94 91 B0 91 BD BA BC BC BA 
 HI HI AE C7 88 51 1F 5C FF 0D 00 16 62 50 8D 3C 95 92 B0 80 BD BA BC BC BA 
 HI HI AE C7 88 51 04 5C 0A 0D 00 16 A9 50 98 60 92 90 B0 79 BD BA BC BC BA 
 HI HI AE C7 88 51 09 5D FF 0D 00 16 8C 4A 95 
 
  AS13955C  15Jun99
  JST  15:58 - 16:07

 HI HI AE C7 88 55 JE H2 FF 0D 00 16 69 42 8E 60 94 91 B0 77 BE BC BD BD BA 
 HI HI AE 07 88 55 19 52 FF 0D 00 16 59 40 88 61 94 91 B0 64 BE BC BD BD BA 
 HI HI AE C7 88 55 1E 52 FF 0D 00 16 79 38 85 60 94 9  B0 77 BE BC BD BD BA 
 HI HI AE 07 88 H5 03 52 05 0D 00 16 67 34 84 61 94 91 B0 76 BE BB BD BD BA 
 HI HI AE 07 88 55 08 52 FF 0D 00 16 5D 33 82 44 95 92 B0 5F BD BB BD BD BA 
 HI HI AE C6 88 55 12 52 FF 0D 00 16 7B 2F 82 60 94 91 B0 64 BD BB BD BD BA 
 HI HI AE C7 88 55 05 52 FF 0D 00 16 8A 42 8E 60 94 91 B0 76 BD BB BD BD BA 
 HI HI AE C7 88 55 1E 52 FF                                           BC BA 
 HI HI AE C7 88 55 02 52 FF 0D 00 16 42 32 96 60 93 8F B0 8D BD BB BC BD BA 
 HI HI AE C7 88 55 07 52 FF 0D 00 16 63 30 95 3B 97 92 B0 83 BD BB BC BC BA 
 HI HI AE C7 88 55 0C 52 FF 0D 00 16 59 38 98 60 94 91 B0 5B BD BA BC BC BA 
 HI HI AE C7 88 55 11 52 FF  

  AS13953C  15Jun99
  JST  12:28 - 12:38

                          05 0D 0016 7A 3A 75 60 93 90 B0 8A BD BB BD BD BA 
 HI HI AE C7 88 55 12 50 FF 0D 00 16 74 3D 7C 48 94 92 B0 6F BD BB BD BD BA 
 HI HI AE C7 88 55 17 50 0A 0D 00 16 5D 3B 79 60 93 90 B0 8A BD BB BD BD BA 
 HI HI AE C7 88 55 1C 50 05 0D 00 16 53 3A 81 45 94 92 B0 7A BD BC BD BD BA 
 HI HI AE C7 88 55 01 50 FF 0D 00 16 6B 35 81 60 93 90 B0 82 BD BB BD BD BA 
 HI HI AE C7 88 55 06 50 FF 0D 00 15 86 36 88 60 92 92 B0 81 BD BB BD BD BA 
 HI HI AE C7 88 55 0B 50 FF 0D 00 15 73 40 8B 61 94 91 B0 7B BD BB BD BD BA 
 HI HI AE C7 88 55 10 50 05 0D 00 16 45 43 8B 60 94 91 B0 97 BD BB BD BD BA 
 HI HI AE C7 88 55 16 50 FF 0D 00 16 48 3E 8E 60 93 91 B0 8A BD BB BC BC BA 
 HI HI AE C7 88 55 1B 50 FF 0D 00 16 8C 39 92 60 93 90 B0 87 BD BA BC BC BA 
 HI HI AE C7 88 55 00 50 FF 0D 00 16 96 42 98 60 94 91 B0 75 BD BA BC BC BA 
 HI HI AE C7 88 55 05 50 FF 0D 00 16 52 55 93 61 94 92 B0 85 BD BA BC BC BA 
 HI HI AE C7 88 55 0A 50 FF 0D 00 16 29 56 93 60 93 90 B0 73 BD BA BC BC BA 
 HI HI AE C7 88 55 0F 50 FF 0D 00 16 6F 50 8E 60 93 90 B0 80 BD BA BC BC BA 
 HI HI AE C7 88 55 12 50 FF 0D 00 16 AF 52 80 60  
 
  AS13941C  14JUN99
  JST  15:05    - 15:19

                                           85 45 95 92 B0 94 BE BC BE BD BA 
 HI HI AE C7 88 51 0C 50 FE 0D 00 16 87 4A 81 60 94 90 B0 85 BE BC BE BD BA 
 HI HI AE C7 88 51 11 50 FF 0D 00 16 5A 43 87 60  3 92 9F 76 BE BC BD BD BA 
 HI HI AE C7 88 51 16 50 FF 0D 00 16 4C 43 8A 60 95 92 A1 73 BE BC BD BD BA 
 HI HI AE C7 88 51 1B 50 FF 0D 00 16 6E 43 88 60 96 93 B0 86 BE BC BE BD BA 
 HI HI AE C7 88 51 00 50 FF 0D 00 16 7F 3B 81 46 96 93 B0 7E BE BC BD BD BA 
 HI HI AE C7 88 51 05 50 FF 0D 00 16 6F 34 85 60 94 91 9F 96 BE BC BD BD BA 
 HI HI AE C7 88 51 0B 50 FF 0D 00 16 5E 31 89 60 93 90 B0 99 BD BB BD BD BA 
 HI HI AE C7 88 51 10 50 FF 0D 00 16 5B 32 88 60 94 91 B0 7E BE BC BD BD BA 
 HI HI AE 07 88 51 15 50 FF 0D 00 16 68 36 85 45 96 92 B0 7F BD BB BD BD BA 
 HI HI AE C7 88 51 1A 50 FF 0D 00 16 83 37 81 60 93 90 B0 87 BD BB BD BD BA  
 HI HI AE C7 88 51 1F 50 FF 0D 00 16 83 33 85 61 93 91 B0 7B BE BB BD BD BA 
 HI HI AE C7 88 51 04 50 FF 0D 00 16 5D 2A 8A 60 93 91 B0 8C BD BB BD BD BA 
 HI HI AE C7 88 51 09 50 FF 0D 00 16 47 32 89 60 93 90 9F 9A BD BB BD BD BA 
 HI HI AE C7 88 51 0F 50 FF 0D 00 16 72 41 85 40 95 92 B0 84 BD BB BC BD BA 
 HI HI AE C7 88 51 14 50 FF 0D 00 16 A2 46 90 60 94 93 B0 80 BD BB BC BD BA  
 HI HI AE C7 88 51 19 50 FF 0D 00 16 84 40 9F 60 94 91 B0 67 BD BB BC BC BA 
 HI HI AE C7 88 51 1E 50 FF 0D 00 16 38 3D 98 61 94 91 B0 88 BD BA BC BC BA 
 HI HI AE C7 88 51 03 50 FF 1A 00 16 3B 48 91 41 97 92 B0 69 BD BA BC BC BA 
 HI HI AE C7 88 51 09 50 FF 0D 00 16 3E 57 90 60 92 90 B0 8C BC BA BC BC BA 
 HI HI AE C7 88 51 0E 50 FF 0D 00 16 B1 5D 
    
 3)テレメトリ換算値例
  
  。Aアナログモード
   AS13981C   17Jun99
   JST  14:05 - 14:11
   JAアナログモードのテレメトリの最終行の換算値例

  テレメトリ	内   容		換算値	単 位
 3C	磁気センサーZ軸=	48039.2	nT
 3D	磁気センサX軸	=	26960.8	nT
 4A	太陽電池発生電流=	 1235.3	mA
 4B	B充放電電流	=	 -236.0	mA
 4C	B端子電圧	=	   16.0	V
 4D	B中間端子電圧	=	    7.0	V
 5A	バス電圧	=	   15.6	V
 5B	JTA送信電力	=	  824.9	mW
 5C 	構体温度1	=	    8.5	℃
 5D	構体温度2	=	    9.3	℃
 6A	構体温度3	=	    8.5	℃
 6B	構体温度4	=	    8.5	℃
 6C	Bセル温度	= 	    9.6	℃
 
 ■複張妊ジタルモード
   上記パスと同じテレメトリ
   JST 14:11 - 14:21
  PSKテレメトリの最初のブロックの換算値例
  
 テレメトリ	内   容		     換算値	単 位
 F1ー12	磁気センサーX軸=	99509.8	nT
 F1ー13	磁気センサーZ軸=	14215.7	nT
 F0ー15	太陽電池発生電流=	 1274.5	mA
 F0ー16	B充放電電流	=         118.4	mA
 F0ー17	B端子電圧	=	   15.9	V
 F0ー18	B中間端子電圧	=	    7.0	V
 F0ー19	バス電圧	=	   17.3	V
 F0ー20	+5安定化電圧	=	    5.1	V
 F0ー21	ー5V安定化電圧	=	  -4.9	V
 F0ー22	+10V安定化電圧=	  10.1	V
 F0ー23	JTA出力電力	=	 -85.1	mW
 F0ー24	JTD出力電力	=	 1283.2	mW
 F0ー25	Bセル温度	=	  9.6	℃
 F0ー26	構体温度ー1	=      8.5	℃
 F0ー27	構体温度ー2	= 	  9.3	℃
 F0ー28	構体温度ー3	=	  8.9	℃
 F0ー29	構体温度ー4	=	  8.5	℃
 F1ー18	太陽電池パネル温度ー1=     2.1	℃
 F1ー19	太陽電池パネル温度ー2=     8.9	℃
 F1ー24	太陽電池パネル温度ー3=     6.6	℃
 F1ー23	JTD  Tr温度      =    12.0	℃
  
  *計算処理は OFFICE 97 を使用.
  *同一パスのJAアナログテレメトリとJDディジタルテレメトリを比較してみましょう.
   
 ==============================================================================
  4)FO−20(ふじ2号)のCWテレメトリは6月15日(火)18:56(JST)の
     パスではテレメトリーが単一トーンの連続音から唸りを伴った連続音、さらにゆらぎの
     ある信号になり、いままでより若干信号が弱くなっていました.

 -----------------------------  FO - 20 軌道要素 ----------------------------------
 
 ■ 軌道要素1 :出典は「ふじ3号」に同じ. 
  
  FO-20
 1 20480U 90013C   99161.08602328 -.00000048  00000-0 -36417-4 0 01612
 2 20480 099.0244 357.1608 0540529 180.6256 179.4224 12.83252524437420
 
 ■ 軌道要素2 :出典は「ふじ3号」に同じ.  
               
  Satellite: FO-20
 atalog number: 20480
 Epoch time:      99161.08602328
 Element set:    0161
 Inclination:      099.0244 deg
 RA of node:       357.1608 deg
 Eccentricity:    0.0540529
 Arg of perigee:   180.6256 deg
 Mean anomaly:     179.4224 deg
 Mean motion:   12.83252524 rev/day
 Decay rate:       -4.8e-07 rev/day^2
 Epoch rev:           43742
 Checksum:              297

   =====================================================================

 5)JARL のホームページに新しい運用追加予定が記載されていましたのでご紹介します.
       ( http://www.jarl.or.jp/Japanese/3_Fuji/uy.htm )

        ■ ふじ3号/FO−29 ■  
  
    *** 運用予定について ***
   
  ☆6月14日 〜 6月21日     デジタル系1200bpsメールボックス運用
   6月21日 〜 7月05日     アナログ系運用

 なお,運用予定は都合により変更することがありますのでご了承願います。

 照会先 : lab@jarl.or.jp

 最新の情報はテレホンサービス(:03−3942−1000)をお聞きください。
   
  以後の運用に付きましては6月7日18時頃にお知らせいたします。

        ■ ふじ2号/FO−20 ■      
            「ふじ2号」 現況                                                                                               
   JAS-1b/FO-20(ふじ2号)の不具合発生について
    JAS-1b(ふじ2号)のCWテレメトリ信号に,1997年10月12日12時
 (JST)の日本上空通過時,3桁の数字が繰り返されるはずが3個の長音の
  繰り返しとなっているという異常が発見されました。この不具合は次の通過時
  からは回復していましたが13日15時20分の通過時に再び観測されました。
  衛星のアナログ系中継モード動作は異常が無く,正常時のテレメトリ内容からは
  衛星の動作に異常は認められません。従って,直ちに衛星のミッションに影響す
  ることは無いと予想されますので,当面はアナログ系中継モードを継続します。
  衛星は既に打ち上げてから7年8ヶ月を経ておりますので,今後は監視を強化す
  る予定です。アマチュア各位のレポートをお待ちします.   
  
  以上  http://www.jarl.or.jp/Japanese/3_Fuji/fuji.htm
                                           
   =============   JAS-2 (ふじ3号)と現在までの情報   ===========
  
  A.電話によるふじ3号の運用情報
      社団法人日本アマチュア連盟によるサービス
           TEL .   03− 3942 − 1000
  B.アマチュア無線FAXサービス
      JARLによるふじ3号の軌道情報(オービットカレンダー)
         FAX No.  03− 3233 −0055
  C.WWWブラウザで情報を簡単に見れる人のためにJAS−2
     ふじ3号の衛星としての運用されるまでの名前)の概要、打ち上げ
     までの状況、運用中における状況を説明したホームページを紹介し
     ておきます.
     社団法人日本アマチュア無線連盟(JARL)のホームページ

          http://www.jarl.or.jp/Japanese/3_Fuji
 
     宇宙開発事業団(NASDA)ホームページ 
          http://www.nasda.go.jp/
         打上げ衛星 :地球観測プラットフォーム技術衛星(ADEOS) 
                       アマチュア衛星3号(JAS-2)
          http://yyy.tksc.nasda.go.jp/Home/Press/Press-j/jas-2_j.html        

  D.JAMSATによる軌道情報の活用
        JAMSATのホームページまたはjamsat−kepsの軌道要素より
      衛星の軌道情報を得る.
     JAMSATホームページ
               URL    http://www.jamsat.or.jp
       上記ホームページでは各地で行われるアマチュア通信衛星に関する
      ミューティングのお知らせや世界のアマチュア衛星に関する情報が
      満載されています.
   
 =========================================================================
       JAMSATのメンバーのご協力によりJH6MME(高山 秀造)が
    執筆・編集を担当しております.ご指摘の意見、疑問やこのようにしたら
    というアイデアがありましたら小さなことでもかまいませんので気軽に下
    記アドレスまでご連絡ください.jamsat−newsからjas2
    infoへの転載をJH4PHW局坂井さんに担当して頂いております.
                    E-mail : jh6mme@jamsat.or.jp : jh4phw@jamsat.or.jp
 ===============================   END  ===============================